Flag for Russia Weather past 2 weeks in Chelyabinsk, Russia

Now
36 °F

Clear.


Feels Like: 29 °F
Forecast: 33 / 44 °F
Wind: 8 mph from Northwest

Location: Chelyabinsk-Balandino

Current Time: Sep 17, 2014 at 10:41:40 PM

Latest Report: Sep 17, 2014 at 10:00 PM


Visibility: 10 mi

Pressure: 29.80 "Hg

Humidity: 75%

Dew point: 28 °F

Location of ChelyabinskLocation

Historic Weather in Chelyabinsk — Graph

°F

Chelyabinsk temperature yesterday

Maximum temperature yesterday: 57 °F (at 4:00 PM)
Minimum temperature yesterday: 39 °F (at 4:30 AM)
Average temperature yesterday: 46 °F

Past Weeks' High & Low Weather Summary

 TemperatureHumidityPressure
High70 °F (Sep 13, 2:30 PM)100% (Sep 5, 7:00 PM)30.36 "Hg (Sep 5, 7:00 PM)
Low32 °F (Sep 9, 5:00 AM)28% (Sep 8, 3:00 PM)29.65 "Hg (Sep 6, 1:00 PM)
Average50 °F71%30.02 "Hg
* Reported Sep 2 9:00 PM — Sep 17 9:30 PM, Chelyabinsk, Weather by CustomWeather, © 2014

Note: Actual official high and low records may vary slightly from our data, if they occured in-between our weather recording intervals... More about our weather records

Advertising

Chelyabinsk weather history for previous 24 hours

 ConditionsComfort  
Time TempWeatherWind HumidityBarometerVisibility
9:30 PM
Sep 17
36 °FPassing clouds.8 mph75%29.80 "HgN/A
9:00 PM36 °FPassing clouds.8 mph81%29.77 "HgN/A
8:30 PM37 °FPassing clouds.10 mph75%29.77 "HgN/A
8:00 PM39 °FScattered clouds.13 mph65%29.77 "HgN/A
7:30 PM39 °FScattered clouds.10 mph65%29.77 "HgN/A
7:00 PM43 °FScattered clouds.10 mph53%29.77 "HgN/A
6:30 PM45 °FScattered clouds.13 mph39%29.77 "HgN/A
6:00 PM45 °FScattered clouds.15 mph46%29.74 "HgN/A
5:30 PM46 °FSprinkles. Broken clouds.17 mph50%29.74 "HgN/A
5:00 PM45 °FBroken clouds.8 mph49%29.74 "HgN/A
4:30 PM46 °FBroken clouds.15 mph40%29.74 "HgN/A
4:00 PM45 °FBroken clouds.17 mph42%29.74 "HgN/A
3:30 PM45 °FBroken clouds.15 mph49%29.74 "HgN/A
3:00 PM43 °FPartly sunny.10 mph57%29.74 "HgN/A
2:30 PM43 °FPartly sunny.15 mph57%29.74 "HgN/A
2:00 PM45 °FPartly sunny.13 mph49%29.74 "HgN/A
1:30 PM43 °FPartly sunny.13 mph49%29.74 "HgN/A
1:00 PM45 °FBroken clouds.20 mph49%29.71 "HgN/A
12:30 PM41 °FPartly sunny.10 mph61%29.71 "HgN/A
12:00 PM41 °FPartly sunny.13 mph61%29.71 "HgN/A
11:30 AM41 °FPartly sunny.13 mph61%29.71 "HgN/A
11:00 AM41 °FPartly sunny.15 mph66%29.71 "HgN/A
10:30 AM39 °FMostly cloudy.10 mph75%29.71 "HgN/A
10:00 AM37 °FMostly cloudy.13 mph81%29.71 "HgN/A
9:30 AM36 °FMostly cloudy.13 mph93%29.71 "HgN/A
9:00 AM36 °FMostly cloudy.15 mph93%29.68 "HgN/A
8:30 AM36 °FMostly cloudy.13 mph100%29.68 "HgN/A
8:00 AM36 °FMostly cloudy.10 mph100%29.68 "HgN/A
7:30 AM36 °FMostly cloudy.10 mph100%29.65 "HgN/A
7:00 AM36 °FPartly cloudy.8 mph100%29.65 "Hg4 mi
6:30 AM36 °FPartly cloudy.8 mph100%29.65 "Hg4 mi
6:00 AM34 °FPartly cloudy.8 mph100%29.65 "Hg4 mi
5:30 AM34 °FPartly cloudy.8 mph100%29.65 "Hg4 mi
5:00 AM36 °FClear.6 mph93%29.65 "Hg10 mi
4:30 AM36 °FClear.6 mph93%29.65 "Hg10 mi
4:00 AM36 °FClear.8 mph93%29.65 "Hg10 mi
3:30 AM36 °FPartly cloudy.8 mph93%29.65 "HgN/A
3:00 AM34 °FPassing clouds.6 mph100%29.65 "HgN/A
2:30 AM36 °FPartly cloudy.6 mph93%29.65 "HgN/A
2:00 AM37 °FPartly cloudy.3 mph93%29.65 "HgN/A
1:30 AM36 °FPartly cloudy.3 mph93%29.65 "HgN/A
1:00 AM36 °FPartly cloudy.6 mph87%29.65 "HgN/A
12:30 AM36 °FPartly cloudy.6 mph87%29.65 "HgN/A
12:00 AM37 °FPartly cloudy.6 mph81%29.65 "HgN/A
11:30 PM
Sep 16
39 °FPartly cloudy.6 mph81%29.65 "HgN/A
11:00 PM39 °FClear.3 mph81%29.65 "Hg10 mi
10:30 PM39 °FClear.3 mph81%29.65 "Hg10 mi
10:00 PM39 °FClear.No wind81%29.65 "Hg10 mi
Weather by CustomWeather, © 2014

See weather overviewHow to use our weather pages